#timestamp,LO_Frequency,Hit,StdDev 
1672995615.6,286046994.7,P
1672995635.5,286046993.0,N
1672995655.3,286046997.2,N
1672995675.2,286046998.4,N
1672995695.9,286046999.6,N
1672995715.7,286046993.5,N
1672995735.6,286046989.8,N
1672995755.4,286046988.4,Y
1672995775.2,286046999.3,P
1672995795.1,286047001.5,N
1672995796.0,286047001.5,N
1672995815.8,286047005.1,N
1672995835.7,286047006.1,N
1672995855.5,286047007.3,N
1672995875.3,286047006.1,N
1672995895.2,286047013.8,Y
1672995915.0,286047006.8,P
1672995915.9,286047006.8,P
1672995935.8,286047009.9,P
1672995955.6,286047007.7,N
1672995975.4,286047009.2,Y
1672995995.3,286046995.3,P
1672996015.1,286046993.9,N
1672996035.8,286046993.5,N
1672996055.7,286046990.9,N
1672996075.5,286046988.3,N
1672996095.4,286046984.5,N
1672996115.2,286046980.7,N
1672996135.0,286046978.0,N
1672996135.9,286046978.0,N
1672996155.8,286046982.4,N
1672996175.6,286046986.8,N
1672996195.5,286046987.8,N
1672996215.3,286046985.8,N
1672996235.1,286046990.0,N
1672996255.9,286046988.9,N
1672996275.7,286046986.1,N
1672996295.5,286046982.8,N
1672996315.4,286046986.0,N
1672996335.2,286046988.0,N
1672996355.1,286046989.4,N
1672996356.0,286046989.4,N
1672996375.8,286046991.8,N
1672996395.6,286046995.9,N
1672996415.5,286046997.7,N
1672996435.3,286046997.8,N
1672996455.1,286046993.4,N
1672996475.9,286046989.4,N
1672996495.7,286046990.4,N
1672996515.6,286046989.3,N
1672996535.4,286046985.5,N
1672996555.2,286046984.1,Y
1672996575.1,286046994.0,P
1672996576.0,286046994.0,N
1672996595.8,286046993.6,N
1672996615.6,286046998.0,N
1672996635.5,286046995.4,N
1672996655.3,286046994.3,N
1672996675.2,286046995.5,N
1672996695.9,286046995.4,N
1672996715.7,286046994.4,N
1672996735.6,286046985.8,Y
1672996755.4,286046989.6,P
1672996775.2,286046985.9,P
1672996795.1,286046988.9,P
1672996796.0,286046988.9,Y
1672996815.8,286046994.9,P
1672996835.7,286047005.3,N
1672996855.5,286047009.3,N
1672996875.3,286047011.0,N
1672996895.2,286047010.1,N
1672996915.0,286047009.5,N
1672996915.9,286047009.5,N
1672996935.7,286047010.3,N
1672996955.6,286047004.8,N
1672996975.4,286047007.4,N
1672996995.3,286047008.8,N
1672997015.1,286047005.5,N
1672997016.0,286047005.5,N
1672997035.8,286047000.5,N
1672997055.7,286046996.8,N
1672997075.5,286046995.5,N
1672997095.4,286046998.5,N
1672997115.2,286046995.9,N
1672997135.0,286046990.6,N
1672997135.9,286046990.6,N
1672997155.8,286046989.3,N
1672997175.6,286046990.1,N
1672997195.4,286046992.9,N
1672997215.3,286046987.1,N
1672997235.1,286046991.2,N
1672997255.8,286046988.5,N
1672997275.7,286046993.6,N
1672997295.5,286046990.6,N
1672997315.4,286046990.1,N
1672997335.2,286046991.6,N
1672997355.0,286046990.4,N
1672997355.9,286046990.4,N
1672997375.8,286046988.7,N
1672997395.6,286046989.0,N
1672997415.4,286046989.6,N
1672997435.3,286046982.2,N
1672997455.1,286046979.8,N
1672997475.9,286046978.6,N
1672997495.7,286046981.3,N
1672997515.5,286046980.4,N
1672997535.4,286046982.6,N
1672997555.2,286046988.2,N
1672997575.0,286046984.1,N
1672997575.9,286046984.1,N
1672997595.8,286046984.6,Y
1672997615.6,286046993.4,P
1672997635.5,286046999.4,N
1672997655.3,286046997.0,N
1672997675.1,286046994.0,N
1672997695.9,286046996.0,N
1672997715.7,286046994.0,N
1672997735.5,286046996.5,N
1672997755.4,286047001.8,N
1672997775.2,286046998.9,N
1672997795.1,286046993.5,N
1672997796.0,286046993.5,N
1672997815.8,286046992.0,N
1672997835.6,286046997.1,N
1672997855.5,286047005.5,N
1672997875.3,286047001.3,N
1672997895.1,286047000.4,N
1672997915.9,286046998.1,N
1672997935.7,286046999.7,N
1672997955.5,286047000.7,N
1672997975.4,286046998.2,N
1672997995.2,286046994.1,N
1672998015.1,286047000.1,N
1672998016.0,286047000.1,N
1672998035.8,286046999.5,N
1672998055.6,286046994.5,N
1672998075.5,286046995.9,N
1672998095.3,286046993.9,N
1672998115.1,286046999.5,N
1672998135.9,286047000.8,N
1672998155.7,286046995.2,N
1672998175.6,286046992.0,N
1672998195.4,286046993.2,N
1672998215.2,286046993.2,N
1672998235.1,286046991.6,N
1672998236.0,286046991.6,N
1672998255.8,286046987.0,Y
1672998275.6,286046986.9,P
1672998295.5,286046989.1,N
1672998315.3,286046991.2,N
1672998335.2,286046994.8,N
1672998355.9,286046990.8,N
1672998375.7,286046988.9,Y
1672998395.6,286046999.0,P
1672998415.4,286046997.5,N
1672998435.2,286046992.4,N
1672998455.1,286046989.4,Y
1672998456.0,286046989.4,P
1672998475.8,286046988.6,P
1672998495.7,286046992.0,N
1672998515.5,286046986.0,Y
1672998535.3,286046996.5,P
1672998555.2,286046994.3,N
1672998575.0,286046991.8,P
1672998575.9,286046991.8,Y
1672998595.8,286046999.6,P
1672998615.6,286047000.5,N
1672998635.4,286047001.0,N
1672998655.3,286047004.1,N
1672998675.1,286047007.6,N
1672998676.0,286047007.6,N
1672998695.8,286047004.8,N
1672998715.7,286047000.7,N
1672998735.5,286046999.2,N
1672998755.3,286046998.7,N
1672998775.2,286047000.2,N
1672998795.0,286047002.3,N
1672998795.9,286047002.3,N
1672998815.8,286047000.0,N
1672998835.6,286046998.9,N
1672998855.4,286046996.4,N
1672998875.3,286046996.6,N
1672998895.1,286047003.7,N
1672998915.8,286047002.2,N
1672998935.7,286046998.8,N
1672998955.5,286046991.9,N
1672998975.4,286046993.2,N
1672998995.2,286046993.6,N
1672999015.0,286046990.6,N
1672999015.9,286046990.6,N
1672999035.8,286046989.7,N
1672999055.6,286046992.0,N
1672999075.4,286046992.1,N
1672999095.3,286046992.7,N
1672999115.1,286047001.1,N
1672999135.9,286046996.7,N
1672999155.7,286046995.6,N
1672999175.5,286047002.3,N
1672999195.4,286047001.1,N
